[Date Prev][Date Next][Thread Prev][Thread Next][Date Index][Thread Index]
[jamsat-news:1252] jas2info #182
========================   ºÇ¿·¾ðÊó   ==============================
        Last updated ¡§Wed.5-Apr.-2000 20:30 (JST) #182
====================================================================
   
  £±¡Ë¥¢¥Þ¥Á¥å¥¢ÄÌ¿®±ÒÀ±¾ðÊ󡡣ƣϥ·¥ê¡¼¥º¤Îµ°Æ»Í×ÁÇ¡¢¥Æ¥ì¥á¥È¥ê¡¢
¡¡¡¡¡¡£Ñ£Ó£Ï¤Î¾õ¶·Åù¤ò¤Þ¤È¤á¤Æ¤ß¤Þ¤·¤¿¡¥
¡¡¡¡¡¡
¡¡¡¡¡¡£Æ£Ï¡Ý£²£¹¤Î£´·î5Æü¡Ê¿å¡Ë¤Î¥Æ¥ì¥á¥È¥ê¤Ï£Ê£Á£Ò£Ì¤Î¥Û¡¼¥à¥Ú¡¼¥¸¤Î
¡¡¡¡±¿ÍÑͽÄê¤Î¤È¤¦¤ê£±£±¡§£µ£±¡Ê£Ê£Ó£Ô¡Ë¤Î¥Ñ¥¹¤Ç¤Ï¥Ç¥£¥¸¥¿¥ë·Ï±¿ÍѤˤʤäÆ
¡¡¡¡¤ª¤ê¤Þ¤·¤¿.¥Ñ¥±¥Ã¥È¿®¹æ¤Ç¥Æ¥ì¥á¥È¥ê¤ò£±£±¡§£µ£±¡Á£±£²¡§£°£±¡Ê£Ê£Ó£Ô¡Ë¤Ë
¡¡¡¡¼õ¿®¤Ç¤¤Þ¤·¤¿.
¡¡¡¡¸½ºß¤Þ¤Ç¡¢Åö¶É¤Ç¼èÆÀ¤·¤¿¥Ç¡¼¥¿¤Î£±Éô¤ò·ÇºÜ¤·¤Æ¤ª¤¤Þ¤¹.
¡¡¡ö¡ö¡¡AS17942P¡¡¡¡05Apr2000
¡¡8J1JCS>BEACON [04/05/00  13:41:47]:
¡¡JAS-2    '97/04/05 04:31:25
¡¡9C 03 03 08 00 32 00 00 00 00
¡¡00 00 3E 16 4A 76 4E 93 90 9E
¡¡AA 52 A8 01 CC B5 B7 B9 B7 B6
¡¡8J1JCS>BEACON [04/05/00  13:41:48]:95 02 00 09 00 00 E2 40 00 00
¡¡12 78 CA 59 38 9A 9D 86 7C 82
¡¡00 00 00 AC 89 B3 F7 00 00 00
¡¡8J1JCS>BEACON [04/05/00  13:41:49]:
¡¡User not connect.
¡¡8J1JCS>BEACON [04/05/00  13:41:52]:    K7XQ        29 Hello from K7XQ
¡¡8J1JCS>BEACON [04/05/00  13:43:47]:
¡¡JAS-2    '97/04/05 04:33:25
¡¡9C 03 63 08 00 32 00 00 00 00
¡¡00 00 3E 16 86 79 60 93 91 B0
¡¡AA 52 A8 01 E3 B5 B7 B8 B7 B6
¡¡8J1JCS>BEACON [04/05/00  13:43:48]:95 02 00 09 00 00 E2 40 00 00
¡¡AC 77 C7 69 3B 98 9C 86 7D 83
¡¡00 00 00 AC 89 B3 F7 00 00 00
¡¡8J1JCS>BEACON [04/05/00  13:43:50]:
¡¡User not connect.
¡¡8J1JCS>BEACON [04/05/00  13:45:47]:
¡¡JAS-2    '97/04/05 04:35:25
¡¡9C 03 03 08 00 32 00 00 00 00
¡¡00 00 3E 16 C2 77 4D 95 92 9F
¡¡AA 52 A8 02 B6 B5 B7 B7 B6 B5
¡¡8J1JCS>BEACON [04/05/00  13:45:48]:95 02 00 09 00 00 E2 40 00 00
¡¡70 77 D0 6C 3E 98 9B 87 7E 84
¡¡00 00 00 AC 89 B3 F7 00 00 00
¡¡8J1JCS>BEACON [04/05/00  13:45:50]:
¡¡User not connect.
¡¡8J1JCS>BEACON [04/05/00  13:45:51]:
¡¡Total    2 File(s)
 No.  Date  UTC    To    From   Size   Subject
¡¡0002 03/10 07:55 ALL    K7XQ        69
¡¡0001 03/07 08:52 ALL
¡¡8J1JCS>BEACON [04/05/00  13:45:52]:    K7XQ        29 Hello from K7XQ
¡¡¡¡** AS17941P  05Apr2000
¡¡8J1JCS>BEACON [04/05/00  11:51:40]:
¡¡JAS-2    '97/04/05 02:41:25
¡¡9C 03 03 08 00 32 00 00 00 00
¡¡00 00 3E 09 66 7A 4C 94 91 9F
¡¡AA 51 A8 02 CC B5 B8 BB B8 B5
¡¡8J1JCS>BEACON [04/05/00  11:51:41]:95 02 00 09 00 00 E1 40 00 00
¡¡E8 85 CE 38 77 9C A1 7F 7B 7B
¡¡00 00 00 AE 84 B3 F7 00 00 00
¡¡8J1JCS>BEACON [04/05/00  11:51:42]:
¡¡User not connect
¡¡8J1JCS>BEACON [04/05/00  11:51:43]:
¡¡Total    2 File(s)
¡¡ No.  Date  UTC    To    From   Size   Subject
¡¡0002 03/10 07:55 ALL    K7XQ        69 
¡¡0001 03/07 08:52 ALL
¡¡8J1JCS>BEACON [04/05/00  11:51:44]:    K7XQ        29 Hello from K7XQ
¡¡8J1JCS>BEACON [04/05/00  11:53:46]:
¡¡JAS-2    '97/04/05 02:43:25
¡¡9C 03 63 08 00 32 00 00 00 00
¡¡00 00 3E 09 A2 7D 60 93 91 B0
¡¡AA 52 A8 02 BF B5 B8 BB B8 B5
¡¡8J1JCS>BEACON [04/05/00  11:53:47]:95 02 00 09 00 00 E1 40 00 00
¡¡21 81 D2 4F 6E A1 A6 80 7B 7C
¡¡00 00 00 AE 85 B3 F7 00 00 00
¡¡8J1JCS>BEACON [04/05/00  11:53:48]:
¡¡User not connect.
¡¡8J1JCS>BEACON [04/05/00  11:53:49]:
¡¡Total    2 File(s)
¡¡ No.  Date  UTC    To    From   Size   Subject
¡¡0002 03/10 07:55 ALL    K7XQ        69 
¡¡0001 03/07 08:52 ALL
¡¡8J1JCS>BEACON [04/05/00  11:53:50]:    K7XQ        29 Hello from K7XQ
¡¡8J1JCS>BEACON [04/05/00  11:55:46]:
¡¡JAS-2    '97/04/05 02:45:25
¡¡9C 03 03 08 00 32 00 00 00 00
¡¡00 00 3E 09 DE 7F 48 95 92 9F
¡¡AA 52 A8 02 B6 B5 B7 BA B7 B5
¡¡8J1JCS>BEACON [04/05/00  11:55:47]:95 02 00 09 00 00 E1 40 00 00
¡¡32 7F D6 61 67 A3 A7 81 7C 7D
¡¡00 00 00 AD 86 B3 F7 00 00 00
¡¡8J1JCS>BEACON [04/05/00  11:55:50]:    K7XQ        29 Hello from K7XQ
¡¡8J1JCS>BEACON [04/05/00  12:01:46]:
¡¡JAS-2    '97/04/05 02:51:25
¡¡9C 03 03 08 00 32 00 00 00 00
¡¡00 00 3E 0A 92 65 59 93 90 9E
¡¡AA 52 A8 02 CC B5 B7 B9 B6 B4
¡¡8J1JCS>BEACON [04/05/00  12:01:47]:95 02 00 09 00 00 E1 40 00 00
¡¡BF 7B EC 68 25 A0 A5 84 7E 80
¡¡00 00 00 AB 88 B3 F7 00 00 00
¡¡8J1JCS>BEACON [04/05/00  12:01:48]:
¡¡User not connect.
¡¡8J1JCS>BEACON [04/05/00  12:01:49]:
¡¡Total    2 File(s)
¡¡ No.  Date  UTC    To    From   Size   Subject
¡¡0002 03/10 07:55 ALL    K7XQ        69 
¡¡0001 03/07 08:52 ALL
¡¡8J1JCS>BEACON [04/05/00  12:01:50]:    K7XQ        29 Hello from K7XQ
¡¡¡¡¡ö¡ö¡¡AS17914£ð¡¡¡¡03APR2000
¡¡8J1JCS>BEACON [04/03/00  12:06:37]:
¡¡JAS-2    '97/04/03 02:57:25
¡¡9C 03 03 08 00 32 00 00 00 00
¡¡00 00 3C B9 C6 72 4F 94 91 9F
¡¡AA 52 A8 01 CE B8 BB B7 B4 B9
¡¡8J1JCS>BEACON [04/03/00  12:06:38]:95 02 00 09 00 00 CA 40 00 00
¡¡7A 88 5C 4F 51 9F A4 87 82 85
¡¡00 00 00 A7 89 B3 F7 00 00 00
¡¡8J1JCS>BEACON [04/03/00  12:06:39]:
¡¡User not connect.
¡¡8J1JCS>BEACON [04/03/00  12:06:41]:
¡¡Total    2 File(s)
 ¡¡No.  Date  UTC    To    From   Size   Subject
¡¡0002 03/10 07:55 ALL    K7XQ        69 
¡¡0001 03/07 08:52 ALL
¡¡8J1JCS>BEACON [04/03/00  12:06:42]:    K7XQ        29 Hello from K7XQ
¡¡8J1JCS>BEACON [04/03/00  12:09:02]:
¡¡JAS-2    '97/04/03 02:59:25
¡¡9C 03 03 08 00 32 00 00 00 00
¡¡00 00 3C BA 02 72 50 95 92 A0
¡¡AA 52 A8 01 D0 B8 BB B7 B4 B9
¡¡8J1JCS>BEACON [04/03/00  12:09:03]:95 02 00 09 00 00 CA 40 00 00
¡¡22 85 5C 4F 5E 9F A4 87 82 85
¡¡00 00 00 A7 89 B3 F7 00 00 00
¡¡8J1JCS>BEACON [04/03/00  12:09:04]:
¡¡User not connect.
¡¡8J1JCS>BEACON [04/03/00  12:09:06]:
¡¡Total    2 File(s)
¡¡ No.  Date  UTC    To    From   Size   Subject
¡¡0002 03/10 07:55 ALL    K7XQ        69
¡¡0001 03/07 08:52 ALL
¡¡8J1JCS>BEACON [04/03/00  12:09:07]:    K7XQ        29 Hello from K7XQ
¡¡------------------------¡¡£Æ£Ï-£²£¹¤Îµ°Æ»Í×ÁÇ¡¡------------------------------        
 
¡¡¡¡¢£ µ°Æ»Í×ÁÇ£±¡§¡Öjamsat¡Ýkeps¡§£¹£¸£°¡×¤è¤ê              
¡¡¡¡¡¡¡¡¡¡¡¡¡¡¡¡¡¡¡¡¡¡¡¡SB KEPS @ AMSAT  $ORB00091.N
¡¡¡¡¡¡¡¡¡¡¡¡¡¡¡¡¡¡¡¡¡¡¡¡2Line Orbital Elements 00091.AMSAT
¡¡HR AMSAT ORBITAL ELEMENTS FOR AMATEUR SATELLITES IN NASA FORMAT
¡¡FROM WA5QGD FORT WORTH,TX March 31, 2000
¡¡SEND SUBSCRIBE/UNSUBSCRIBE TO majordomo@amsat.org ONLY
¡¡BID: ORB00091.N
 ¡¡DECODE 2-LINE ELSETS WITH THE FOLLOWING KEY:
 ¡¡1 AAAAAU 00  0  0 BBBBB.BBBBBBBB  .CCCCCCCC  00000-0  00000-0 0  DDDZ
 ¡¡2 AAAAA EEE.EEEE FFF.FFFF GGGGGGG HHH.HHHH III.IIII JJ.JJJJJJJJKKKKKZ
 ¡¡KEY: A-CATALOGNUM B-EPOCHTIME C-DECAY D-ELSETNUM E-INCLINATION F-RAAN
 ¡¡G-ECCENTRICITY H-ARGPERIGEE I-MNANOM J-MNMOTION K-ORBITNUM Z-CHECKSUM
 ¡¡TO ALL RADIO AMATEURS BT
¡¡FO-29
¡¡1 24278U 96046B   00089.75639289  .00000119  00000-0  15477-3 0 03200
¡¡2 24278 098.5893 008.0352 0352021 072.5019 291.4256 13.52706561178553
 ¢£ µ°Æ»Í×ÁÇ£²¡§¡Öjamsat¡Ýkeps¡§£¹£·£¹¡×¤è¤ê                         
¡¡¡¡¡¡¡¡¡¡¡¡¡¡¡¡¡¡SB KEPS @ AMSAT  $ORB00091.O
¡¡¡¡¡¡¡¡¡¡¡¡¡¡¡¡¡¡Orbital Elements  00091.OSCAR
¡¡HR AMSAT ORBITAL ELEMENTS FOR OSCAR SATELLITES
¡¡FROM WA5QGD FORT WORTH,TX March 31, 2000
¡¡SEND SUBSCRIBE/UNSUBSCRIBE TO majordomo@amsat.org ONLY
¡¡BID: ORB00091.O
¡¡¡¡TO ALL RADIO AMATEURS BT
  Satellite: FO-29
¡¡Catalog number: 24278
¡¡Epoch time:      00089.75639289
¡¡Element set:    0320
¡¡Inclination:      098.5893 deg
¡¡RA of node:       008.0352 deg
¡¡Eccentricity:    0.0352021
¡¡Arg of perigee:   072.5019 deg
¡¡Mean anomaly:     291.4256 deg
¡¡Mean motion:   13.52706561 rev/day
¡¡Decay rate:       1.19e-06 rev/day^2
¡¡Epoch rev:           17855
¡¡Checksum:              314
-------------------¡¡¡¡FO-29¡ÊJAS-2)¤Î¥Æ¥ì¥á¥È¥ê¤Ë´Ø¤¹¤ë¾ðÊó¡¡¡¡----------------------
¡¡
¡¡£²¡Ë¾åµ¤Î4·î5Æü¡Ê¿å¡Ë¤Î¥Æ¥ì¥á¥È¥ê¤ÎºÇ¸å¤Î¹Ô¤Î
¡¡¡¡Ê¬ÀÏ·ë²Ì¤Ç¤¹¡£
¡¡¡ö¡öAS17942P¡¡¡¡05Apr2000
¡¡8J1JCS>BEACON [04/05/00  13:45:47]:
¡¡JAS-2    '97/04/05 04:35:25
¡¡9C 03 03 08 00 32 00 00 00 00
¡¡00 00 3E 16 C2 77 4D 95 92 9F
¡¡AA 52 A8 02 B6 B5 B7 B7 B6 B5
¡¡8J1JCS>BEACON [04/05/00  13:45:48]:95 02 00 09 00 00 E2 40 00 00
¡¡70 77 D0 6C 3E 98 9B 87 7E 84
¡¡00 00 00 AC 89 B3 F7 00 00 00
 
¡¡¥Æ¥ì¥á¥È¥ê¡¡¡¡	Æâ   ÍÆ	¡¡¡¡¡¡¡¡	´¹»»ÃÍ	ñ °Ì¡¡
¡¡
¡¡£Æ£±-£±£²	¼§µ¤¥»¥ó¥µ-£Ø¼´	=   101960.8[nT]
¡¡£Æ£±-£±£³	¼§µ¤¥»¥ó¥µ-£Ú¼´	=    52941.2[nT]
¡¡£Æ£°-£±£µ	ÂÀÍÛÅÅÃÓȯÀ¸ÅÅή =     1166.7[mA]
¡¡£Æ£°-£±£¶	£Â½¼ÊüÅÅÅÅή	=      490.8[mA]
¡¡£Æ£°-£±£·	£Âü»ÒÅ۵	=	16.0[V]
¡¡£Æ£°-£±£¸	£ÂÃæ´Öü»ÒÅ۵	=	 7.0[V]
¡¡£Æ£°-£±£¹	¥Ð¥¹Å۵¡¡	=	15.6[V]
¡¡£Æ£°-£²£°	¡Ü5°ÂÄê²½Å۵	=	 5.1[V]
¡¡£Æ£°-£²£±	-5£Ö°ÂÄê²½Å۵	=	-4.9[V]
¡¡£Æ£°-£²£²	¡Ü£±£°£Ö°ÂÄê²½Å۵=	10.1[V]
¡¡£Æ£°-£²£³	£Ê£Ô£Á½ÐÎÏÅÅÎÏ	=      -85.1[£í£×]
¡¡£Æ£°-£²£´	£Ê£Ô£Ä½ÐÎÏÅÅÎÏ	=     1049.9[£í£×]
¡¡£Æ£°-£²£µ	£Â¥»¥ë²¹ÅÙ	=	11.6[¡î]
¡¡£Æ£°-£²£¶	¹½Âβ¹ÅÙ-£±	=	10.8[¡î]
¡¡£Æ£°-£²£·	¹½Âβ¹ÅÙ-£²	=	10.8[¡î]
¡¡£Æ£°-£²£¸	¹½Âβ¹ÅÙ-£³	=	11.2[¡î]
¡¡£Æ£°-£²£¹	¹½Âβ¹ÅÙ-£´	=	11.6[¡î]
¡¡£Æ£±-£±£¸	ÂÀÍÛÅÅÃӥѥͥ벹ÅÙ-£±=    2.1[¡î]
¡¡£Æ£±-£±£¹	ÂÀÍÛÅÅÃӥѥͥ벹ÅÙ-£²=   15.7[¡î]
¡¡£Æ£±-£²£´	ÂÀÍÛÅÅÃӥѥͥ벹ÅÙ-£³=   27.0[¡î]
¡¡£Æ£±-£²£³	£Ê£Ô£Ä  £Ô£ò²¹ÅÙ     =   15.1[¡î]
  
 ¡¡* OS¤ÏWindows 2000,Office¡¡2000¡¡¤Ë¤Æ·×»»½èÍý.
¡¡¡¡
 ==================================================================================
 ¡¡£´¡Ë£Ê£Á£Ò£Ì ¤Î¥Û¡¼¥à¥Ú¡¼¥¸¤Ë±¿ÍÑͽÄ꤬µºÜ¤µ¤ì¤Æ¤¤¤Þ¤·¤¿¤Î¤Ç¤´¾Ò²ð¤·¤Þ¤¹¡¥
       ¡Ê http://www.jarl.or.jp/Japanese/3_Fuji/new/uy.htm ¡Ë
        ¢£ ¤Õ¤¸£³¹æ¡¿FO¡¼29/JAS-2 ¢£  
  ¡¡
¡¡¡¡¡¡¡¡¡¡¡ö¡ö¡ö¡¡±¿ÍÑͽÄê¤Ë¤Ä¤¤¤Æ¡¡¡ö¡ö¡ö¡¡  
¡¡£°£´·î£°£³Æü¡¡¡Á¡¡£°£´·î£°£¶Æü ¥Ç¥¸¥¿¥ë·Ï£±£²£°£°£â£ð£ó¥á¡¼¥ë¥Ü¥Ã¥¯¥¹±¿ÍÑ 
¡¡£°£´·î£°£·Æü¡¡¡Á¡¡£°£´·î£±£¶Æü ¥¢¥Ê¥í¥°·Ï±¿ÍÑ 
¡¡£°£´·î£±£·Æü¡¡¡Á¡¡£°£´·î£²£°Æü ¥Ç¥¸¥¿¥ë·Ï£±£²£°£°£â£ð£ó¥á¡¼¥ë¥Ü¥Ã¥¯¥¹±¿ÍÑ 
¡¡£°£´·î£²£±Æü¡¡¡Á¡¡£°£µ·î£°£·Æü ¥¢¥Ê¥í¥°·Ï±¿ÍÑ 
¡¡¡ö¤Ê¤ª¡¤±¿ÍÑͽÄê¤ÏÅÔ¹ç¤Ë¤è¤êÊѹ¹¤¹¤ë¤³¤È¤¬¤¢¤ê¤Þ¤¹¤Î¤Ç¤´Î»¾µ´ê¤¤¤Þ¤¹¡£
¡¡¾È²ñÀè¡¡¡§¡¡lab@jarl.or.jp
¡¡ºÇ¿·¤Î¾ðÊó¤Ï¥Æ¥ì¥Û¥ó¥µ¡¼¥Ó¥¹¡Ê£°£³¡Ý£³£¹£´£²¡Ý£±£°£°£°¡Ë¤ò¤ªÊ¹¤¤¯¤À¤µ¤¤¡£¡¡¡¡
¡¡°Ê¸å¤Î±¿ÍѤˤĤ¤Þ¤·¤Æ¤Ï£´·î²¼½Ü¤Ë¤ªÃΤ餻¤¤¤¿¤·¤Þ¤¹¡£
 
-----------------------    £Æ£Ï¡Ý£²£°¡ÊJAS-£±£â¡ËÆ»Í×ÁÇ   -------------------------
 ¡¡£µ¡Ë
 ¡¡¢£ µ°Æ»Í×ÁÇ£± ¡§½Ðŵ¤Ï£Æ£Ï-£²£¹¡Ö¤Õ¤¸£³¹æ¡×¤ËƱ¤¸¡¥
  
  FO-20
¡¡1 20480U 90013C   00089.93445743  .00000059  00000-0  21159-3 0 02306
¡¡2 20480 099.0384 235.2208 0539859 234.7400 120.2048 12.83266696475114
 ¡¡¢£ µ°Æ»Í×ÁÇ£² ¡§½Ðŵ¤Ï£Æ£Ï¡Ý£²£¹¡Ö¤Õ¤¸£³¹æ¡×¤ËƱ¤¸¡¥
               
